Regional Weather Roundup
Issued by NWS

Home | Current Version | Previous Version | Graphics & Text | Print | Product List | Glossary On
Versions: 1 2 3 4 5 6 7 8 9 10 11 12 13 14 15 16 17 18 19 20 21 22 23 24 25 26 27
000
ASUS45 KTFX 241010
RWRMT
MONTANA REGIONAL WEATHER ROUNDUP
NATIONAL WEATHER SERVICE GREAT FALLS MT
400 AM MDT FRI MAR 24 2017

NOTE: "FAIR" INDICATES FEW OR NO CLOUDS BELOW 12000 FEET WITH NO
SIGNIFICANT WEATHER AND/OR OBSTRUCTIONS TO VISIBILITY.

MTZ001>007-043-241100-
WEST OF THE DIVIDE

CITY           SKY/WX    TMP DP  RH WIND       PRES   REMARKS
KALISPELL      CLEAR     25  23  92 CALM      30.04F
MISSOULA       CLEAR     28  24  85 CALM      30.08S
BUTTE          CLEAR     24  19  81 E3        30.04F
MULLAN PASS    PTCLDY    25  21  85 S9        29.95F WCI  15
ANACONDA         N/A     27  18  69 SW6       30.04F WCI  20
DEER LODGE       N/A     21  19  93 CALM      30.07S
EUREKA           N/A     27  21  80 CALM      30.04F
HAMILTON         N/A     30  23  74 S7        30.05F WCI  23
RONAN            N/A     28  24  85 CALM      30.06F
$$

MTZ008-052>055-241100-
SOUTHWEST MONTANA

CITY           SKY/WX    TMP DP  RH WIND       PRES   REMARKS
BOZEMAN        CLEAR     27  23  85 SE5       30.06S
DILLON         CLEAR     28  20  71 S7        30.04F WCI  21
W YELLOWSTONE  CLOUDY    25  23  93 SW8       30.11R WCI  16
ENNIS          CLEAR     28  21  74 S13       30.10S WCI  18
THREE FORKS      N/A     25  10  52 CALM      30.04S
TWIN BRIDGES     N/A     26  17  68 SE6       30.03R WCI  19
$$

MTZ009-010-012-014-046-048-049-054-241100-
EAST SLOPES AND CENTRAL MONTANA

CITY           SKY/WX    TMP DP  RH WIND       PRES   REMARKS
CUT BANK       CLEAR     27  20  75 W5        29.98S
GREAT FALLS    CLOUDY    28  17  63 CALM      30.01S
MALMSTROM AFB  CLEAR     29  20  70 S6        30.02S WCI  23
HELENA         CLEAR     31  22  69 CALM      30.04S
AUGUSTA          N/A     23  16  73 CALM      29.98F
BOWMANS CRNR     N/A     30  20  65 S10       29.97S WCI  21
CHOTEAU          N/A     28  19  69 MISG      30.01S
CONRAD           N/A     20  19  96 S3        30.01S
FAIRFIELD        N/A     30  17  58 CALM      29.99R
POWER            N/A     25  18  73 S5        29.99S
RAYNESFORD       N/A     26  19  72 E8        30.01F WCI  18
$$

MTZ011-013-016-021-045-047-050-051-241100-
NORTH CENTRAL MONTANA

CITY           SKY/WX    TMP DP  RH WIND       PRES   REMARKS
HAVRE          CLEAR     28  24  85 SW12      30.00F WCI  18
LEWISTOWN      CLEAR     28  19  69 S7        30.01F WCI  21
N BAR RANCH      N/A     32  21  64 NW5       30.04R
CHINOOK          N/A     28  25  86 CALM      30.01S
DENTON           N/A     27  21  78 SW14      29.99F WCI  16
GEYSER           N/A     30  19  63 E5        30.01S
GRASS RANGE      N/A     31  22  67 W5        29.98F
STANFORD         N/A     25  19  76 CALM      30.00F
WINIFRED         N/A     32  21  63 SW8       30.00F WCI  25
$$

MTZ017>020-022>027-061-062-241100-
NORTHEAST MONTANA

CITY           SKY/WX    TMP DP  RH WIND       PRES   REMARKS
GLASGOW        CLEAR     33  27  78 N9        29.98R WCI  25
JORDAN           N/A     30  26  85 W7        30.01R WCI  23
SIDNEY         CLEAR     33  31  92 N7        30.03R WCI  27
WOLF POINT     PTCLDY    30  28  92 E6        30.02R WCI  24
MALTA          CLEAR     28  25  86 W6        29.98F WCI  22
PLENTYWOOD       N/A     32  30  93 E8        30.03R WCI  25
POPLAR           N/A     34  30  86 NE8       30.03R VSB 1   WCI  27
$$

MTZ028>42-056>058-241100-
SOUTHCENTRAL AND SOUTHEAST MONTANA

CITY           SKY/WX    TMP DP  RH WIND       PRES   REMARKS
BAKER          PTCLDY    35  31  85 W8        30.00S WCI  29
BILLINGS       PTCLDY    38  33  82 SW9       30.04R WCI  31
LIVINGSTON     CLEAR     25  19  78 W3        30.04S
MILES CITY     CLEAR     35  32  88 S6        30.03R WCI  30
BIG TIMBER     CLEAR     34  23  64 W9        30.05F WCI  26
FORSYTH          N/A     39  37  93 CALM      30.02S
HARLOWTON        N/A     29  21  72 W18       30.02S WCI  16
LAUREL           N/A     33  22  64 SW1       30.01F
$$

REGIONAL REPORTS...DAKOTAS

CITY           SKY/WX    TMP DP  RH WIND       PRES   REMARKS
WILLISTON      CLEAR     26  24  92 CALM      30.05R
MINOT          CLEAR     26  23  88 CALM      30.04R
DICKINSON      FOG       32  32 100 CALM      29.98R VSB 1/4
BEACH            N/A    N/A N/A N/A MISG        N/A
TIOGA            N/A     27  27 100 E6        30.05R FOG     WCI  20
WATFORD CITY     N/A     30  30 100 CALM      30.03R
BISMARCK       CLOUDY    30  28  92 NW3       30.01R FOG
GRAND FORKS    CLOUDY    32  31  96 N13       30.00R WCI  22
FARGO          CLOUDY    34  34 100 N5        29.95R FOG
BUFFALO SD       N/A     37  35  92 NW10      29.91S WCI  30
RAPID CITY     CLOUDY    42  37  82 NW8       30.00R
$$

REGIONAL REPORTS...WYOMING/IDAHO/WASHINGTON

CITY           SKY/WX    TMP DP  RH WIND       PRES   REMARKS
GILLETTE       CLEAR     35  34  96 W13       30.04R WCI  26
SHERIDAN       CLEAR     31  27  85 CALM      30.05R
BUFFALO WY     CLOUDY    38  28  67 CALM      30.06R
CODY           CLEAR     37  30  75 SW9       30.06S WCI  30
YELLOWSTONE LA   N/A     18  16  92 CALM      30.12R
IDAHO FALLS    CLEAR     38  23  55 S12       30.11F WCI  30
SALMON         CLEAR     27  19  74 CALM      30.06F
BOISE          PTCLDY    44  25  47 SE16      30.03F
SPOKANE        CLOUDY    38  28  67 NE8       29.92F
$$

REGIONAL REPORTS...ALBERTA

CITY           SKY/WX    TMP DP  RH WIND       PRES   REMARKS
EDMONTON       CLEAR     25  21  86 SE5       29.94F
CALGARY        PTCLDY    30  23  74 S3        29.92F
LETHBRIDGE     CLEAR     25  19  80 SW9       29.97F WCI  15
MEDICINE HAT   CLEAR     28  25  86 CALM      29.97S
WATERTON GATE    N/A     36  19  51 SW14G20     N/A  WCI  27
CARDSTON         N/A     23  18  80 SE2         N/A
MILK RIVER       N/A     25  21  86 W6          N/A  WCI  18
ONEFOUR          N/A     30  19  64 SW2         N/A
$$

REGIONAL REPORTS...SASKATCHEWAN

CITY           SKY/WX    TMP DP  RH WIND       PRES   REMARKS
SWIFT CURRENT  PTCLDY    27  25  93 E12       29.97S WCI  16
REGINA         CLEAR     25  21  86 NE5       30.03S
SASKATOON      PTCLDY    25  19  80 SE8       30.09S WCI  16
CYPRESS HILLS    N/A     37  18  44 S2          N/A
VAL MARIE        N/A     25  23  93 NE7         N/A  WCI  17
ROCKGLEN         N/A     32  30  93 NE3         N/A
$$




USA.gov is the U.S. government's official web portal to all federal, state and local government web resources and services.